| time (UTC) | temp C | wind direction | speed KPH | gust KPH | rain 1hr cm | rain 24hr cm | rain mn cm | humidity % | barometer mb |
| 20260505140406 | 18 | 309 | 3.2 | 4.8 | 0.00 | 0.00 | 0.00 | 70 | 989.1 |
| 20260505120405 | 8 | 270 | 0.0 | 3.2 | 0.00 | 0.00 | 0.00 | 99 | 988.2 |
| 20260505110904 | 8 | 297 | 1.6 | 3.2 | 0.00 | 0.00 | 0.00 | 98 | 987.3 |
| 20260505110404 | 8 | 258 | 1.6 | 3.2 | 0.00 | 0.00 | 0.00 | 97 | 987.4 |
| 20260505100905 | 9 | 231 | 1.6 | 3.2 | 0.00 | 0.00 | 0.00 | 94 | 987.2 |
| 20260505100405 | 8 | 270 | 1.6 | 3.2 | 0.00 | 0.00 | 0.00 | 96 | 987.2 |
| 20260505090905 | 8 | 202 | 0.0 | 0.0 | 0.00 | 0.00 | 0.00 | 96 | 987.3 |
| 20260505090405 | 8 | 189 | 0.0 | 1.6 | 0.00 | 0.00 | 0.00 | 95 | 987.7 |
| 20260505080904 | 7 | 261 | 1.6 | 3.2 | 0.00 | 0.00 | 0.00 | 98 | 987.6 |
| 20260505080405 | 8 | 203 | 0.0 | 0.0 | 0.00 | 0.00 | 0.00 | 97 | 987.3 |
| 20260505070905 | 8 | 185 | 1.6 | 1.6 | 0.00 | 0.00 | 0.00 | 93 | 987.5 |
| 20260505070405 | 9 | 202 | 1.6 | 3.2 | 0.00 | 0.00 | 0.00 | 93 | 987.3 |
| 20260505060905 | 10 | 265 | 1.6 | 3.2 | 0.00 | 0.00 | 0.00 | 92 | 987.4 |
| 20260505060405 | 10 | 281 | 0.0 | 3.2 | 0.00 | 0.00 | 0.00 | 89 | 987.5 |
| 20260505050904 | 10 | 179 | 0.0 | 0.0 | 0.00 | 0.00 | 0.00 | 89 | 987.8 |
| 20260505050406 | 10 | 180 | 0.0 | 1.6 | 0.00 | 0.00 | 0.00 | 87 | 987.7 |
| 20260505040904 | 11 | 180 | 1.6 | 1.6 | 0.00 | 0.00 | 0.00 | 82 | 987.6 |
| 20260505040404 | 11 | 194 | 0.0 | 3.2 | 0.00 | 0.00 | 0.00 | 82 | 987.6 |
| 20260505030904 | 12 | 180 | 0.0 | 0.0 | 0.00 | 0.00 | 0.00 | 80 | 987.8 |
| 20260505030405 | 12 | 180 | 1.6 | 3.2 | 0.00 | 0.00 | 0.00 | 80 | 987.6 |
| 20260505020904 | 13 | 180 | 1.6 | 1.6 | 0.00 | 0.00 | 0.00 | 74 | 987.7 |
| 20260505020405 | 14 | 180 | 0.0 | 4.8 | 0.00 | 0.00 | 0.00 | 76 | 987.5 |
| 20260505010905 | 15 | 180 | 0.0 | 0.0 | 0.00 | 0.00 | 0.00 | 75 | 987.0 |
| 20260505010406 | 16 | 180 | 0.0 | 1.6 | 0.00 | 0.00 | 0.00 | 74 | 986.9 |
| 20260505000904 | 20 | 197 | 0.0 | 1.6 | 0.00 | 0.00 | 0.00 | 56 | 986.5 |
| 20260504230904 | 24 | 211 | 3.2 | 9.7 | 0.00 | 0.00 | 0.00 | 43 | 986.7 |
| 20260504230406 | 25 | 303 | 3.2 | 11.3 | 0.00 | 0.00 | 0.00 | 40 | 986.7 |
| 20260504220904 | 26 | 244 | 4.8 | 8.0 | 0.00 | 0.00 | 0.00 | 37 | 986.9 |
| 20260504220405 | 25 | 199 | 4.8 | 9.7 | 0.00 | 0.00 | 0.00 | 38 | 986.9 |
| 20260504210904 | 26 | 305 | 4.8 | 9.7 | 0.00 | 0.00 | 0.00 | 37 | 986.8 |
| 20260504210405 | 25 | 340 | 3.2 | 14.5 | 0.00 | 0.00 | 0.00 | 41 | 987.0 |
| 20260504200904 | 25 | 248 | 4.8 | 8.0 | 0.00 | 0.00 | 0.00 | 37 | 987.4 |
| 20260504200404 | 26 | 240 | 3.2 | 14.5 | 0.00 | 0.00 | 0.00 | 37 | 987.6 |
| 20260504190905 | 25 | 137 | 3.2 | 4.8 | 0.00 | 0.00 | 0.00 | 38 | 988.5 |
| 20260504190405 | 25 | 262 | 4.8 | 11.3 | 0.00 | 0.00 | 0.00 | 37 | 988.5 |
| 20260504180904 | 26 | 330 | 4.8 | 8.0 | 0.00 | 0.00 | 0.00 | 37 | 989.3 |
| 20260504180404 | 25 | 214 | 3.2 | 12.9 | 0.00 | 0.00 | 0.00 | 39 | 989.6 |
| 20260504170904 | 25 | 205 | 4.8 | 8.0 | 0.00 | 0.00 | 0.00 | 37 | 990.2 |
| 20260504170404 | 24 | 331 | 3.2 | 12.9 | 0.00 | 0.00 | 0.00 | 39 | 990.5 |
| 20260504160404 | 22 | 253 | 3.2 | 11.3 | 0.00 | 0.00 | 0.00 | 46 | 991.1 |
| 20260504150905 | 20 | 147 | 4.8 | 11.3 | 0.00 | 0.00 | 0.00 | 51 | 991.2 |
| 20260504150405 | 20 | 299 | 4.8 | 14.5 | 0.00 | 0.00 | 0.00 | 49 | 991.4 |